Tracking 19638 objects as of 18-Apr-2019
HD Live streaming from Space Station
objects crossing your sky now

THORAD AGENA D DEB

Track THORAD AGENA D DEB now!
10-day predictions


NORAD ID: 42496
Int'l Code: 1970-025RA
Perigee: 1,048.5 km
Apogee: 1,131.1 km
Inclination: 99.8 °
Period: 106.9 minutes
Semi major axis: 7460 km
RCS: Unknown
Launch date: April 8, 1970
Source: United States (US)
Launch site: AIR FORCE WESTERN TEST RANGE (AFWTR)

Note: This is SATELLITE DEBRIS
aabbcc
Your satellite tracking list
Your tracking list is empty




NASA's NSSDC Master Catalog

Two Line Element Set (TLE):
1 42496U 70025RA  19105.54891383 +.00000054 +00000-0 +15921-3 0  9996
2 42496 099.8346 011.9835 0055328 098.0650 022.7917 13.47180725265306
Source of the keplerian elements: AFSPC